TimeCST,TemperatureF,Dew PointF,Humidity,Sea Level PressureIn,VisibilityMPH,Wind Direction,Wind SpeedMPH,Gust SpeedMPH,PrecipitationIn,Events,Conditions,WindDirDegrees,DateUTC
12:53 AM,30.9,28.0,89,30.33,7.0,NNW,8.1,-,N/A,,Clear,340,2014-02-07 06:53:00
1:53 AM,32.0,28.0,85,30.32,8.0,North,10.4,-,N/A,,Clear,350,2014-02-07 07:53:00
2:53 AM,30.9,28.0,89,30.32,6.0,North,10.4,-,N/A,,Clear,350,2014-02-07 08:53:00
3:28 AM,30.9,28.0,89,30.31,7.0,North,9.2,-,N/A,,Clear,350,2014-02-07 09:28:00
3:53 AM,30.9,28.0,89,30.32,7.0,North,8.1,-,N/A,,Clear,350,2014-02-07 09:53:00
4:53 AM,30.0,27.0,88,30.33,5.0,North,9.2,-,N/A,,Clear,350,2014-02-07 10:53:00
5:53 AM,30.0,27.0,88,30.35,6.0,North,9.2,-,N/A,,Clear,350,2014-02-07 11:53:00
6:53 AM,30.0,27.0,88,30.34,5.0,North,6.9,-,N/A,,Clear,360,2014-02-07 12:53:00
7:53 AM,33.1,28.9,85,30.34,6.0,North,10.4,-,N/A,,Clear,10,2014-02-07 13:53:00
8:53 AM,37.0,30.0,76,30.36,8.0,North,10.4,-,N/A,,Clear,10,2014-02-07 14:53:00
9:53 AM,41.0,30.0,65,30.37,10.0,NNE,12.7,-,N/A,,Clear,20,2014-02-07 15:53:00
10:53 AM,43.0,30.9,62,30.36,10.0,NNE,9.2,-,N/A,,Clear,20,2014-02-07 16:53:00
11:53 AM,46.9,30.9,54,30.33,10.0,North,8.1,-,N/A,,Clear,10,2014-02-07 17:53:00
12:53 PM,48.9,30.9,50,30.30,10.0,NNE,9.2,-,N/A,,Clear,20,2014-02-07 18:53:00
1:53 PM,52.0,33.1,49,30.25,10.0,NNE,10.4,-,N/A,,Clear,30,2014-02-07 19:53:00
2:53 PM,53.1,35.1,50,30.23,10.0,NNE,11.5,-,N/A,,Clear,20,2014-02-07 20:53:00
3:53 PM,54.0,34.0,47,30.23,10.0,North,9.2,-,N/A,,Clear,360,2014-02-07 21:53:00
4:53 PM,52.0,34.0,50,30.23,10.0,North,5.8,-,N/A,,Clear,10,2014-02-07 22:53:00
5:53 PM,50.0,34.0,54,30.23,10.0,North,4.6,-,N/A,,Mostly Cloudy,350,2014-02-07 23:53:00
6:53 PM,51.1,35.1,54,30.24,10.0,North,8.1,-,N/A,,Overcast,360,2014-02-08 00:53:00
7:53 PM,50.0,35.1,57,30.24,10.0,North,8.1,-,0.00,Rain,Light Rain,10,2014-02-08 01:53:00
8:53 PM,48.0,36.0,63,30.25,10.0,NNE,6.9,-,0.00,Rain,Light Rain,30,2014-02-08 02:53:00
9:53 PM,48.0,37.0,66,30.25,10.0,NNE,5.8,-,0.00,,Overcast,20,2014-02-08 03:53:00
10:53 PM,46.9,36.0,66,30.25,10.0,North,6.9,-,0.00,Rain,Light Rain,360,2014-02-08 04:53:00
11:53 PM,46.0,36.0,68,30.22,10.0,North,6.9,-,0.01,Rain,Light Rain,10,2014-02-08 05:53:00